Regional Weather Roundup
Issued by NWS

Home | Current Version | Previous Version | Graphics & Text | Print | Product List | Glossary On
Versions: 1 2 3 4 5 6 7 8 9 10 11 12 13 14 15 16 17 18 19 20 21 22 23 24 25 26 27 28 29 30 31 32 33 34 35 36 37 38 39 40 41 42 43 44 45 46 47 48 49 50
332
ASUS43 KMPX 171801
RWRMN
WEATHER ROUNDUP FOR MINNESOTA
NATIONAL WEATHER SERVICE TWIN CITIES/CHANHASSEN MN
1200 PM CST FRI NOV 17 2017


NOTE: "FAIR" INDICATES FEW OR NO CLOUDS BELOW 12,000 FEET WITH NO
SIGNIFICANT WEATHER AND/OR OBSTRUCTIONS TO VISIBILITY. N/A MEANS
CURRENT SKY AND/OR WEATHER CONDITIONS ARE NOT AVAILABLE.

MNZ060>063-068>070-171900-
   Twin Cities Metro

CITY           SKY/WX    TMP DP  RH WIND       PRES   REMARKS
TWIN CITIES    DRZL/FOG  37  37 100 SE6       29.65F VSB 1
6HR MIN TEMP:  36; 6HR MAX TEMP:  38; 6HR PCP:  0.05;

ST PAUL        MIX PCPN  37  37 100 SE6       29.67F VSB 3/4
CRYSTAL        CLOUDY    37  33  85 SE5       29.64F FOG
BLAINE         DRIZZLE   37  37 100 SE6       29.65F
LAKEVILLE        N/A     36  36 100 S6        29.64F FOG
EDEN PRAIRIE   CLOUDY    38  36  92 S7        29.64F FOG
6HR MIN TEMP:  36; 6HR MAX TEMP:  38; 6HR PCP:  0.01;

SOUTH ST PAUL  FOG       37  37 100 SE3       29.65F VSB 3/4
LAKE ELMO      LGT RAIN  36  36 100 S7        29.67F
$$
MNZ001>005-007-008-013>017-022>024-027-028-171900-
   Northwest Minnesota

CITY           SKY/WX    TMP DP  RH WIND       PRES   REMARKS
BEMIDJI        CLOUDY    35  30  83 W6        29.61F WCI  30
HALLOCK        MOSUNNY   23  16  74 NW9       29.70R WCI  13
ROSEAU         CLOUDY    27  19  74 W12G20    29.63S WCI  16
WARROAD        PTSUNNY   32  27  80 W9        29.61S WCI  24
CROOKSTON      CLOUDY    28  19  69 NW15G22   29.69S WCI  17
FOSSTON        CLOUDY    36  28  75 W10       29.65R
DETROIT LAKES  CLOUDY    36  32  87 NW9       29.64S
MOORHEAD       CLOUDY    36  28  75 NW16      29.69R
PARK RAPIDS    CLOUDY    35  31  85 W3        29.61F
MAHNOMEN       FAIR      35  30  82 W10       29.64S WCI  27
$$
MNZ006-009>011-018-025>026-171900-
   North Central Minnesota

CITY           SKY/WX    TMP DP  RH WIND       PRES   REMARKS
BAUDETTE       CLOUDY    35  29  78 W10       29.59S WCI  27
FLAG ISLAND    CLOUDY    28  25  86 NW13      29.59R WCI  18
INTL FALLS     CLOUDY    35  29  78 SW8       29.59F HAZE    WCI  29
6HR MIN TEMP:  32; 6HR MAX TEMP:  35;

WASKISH        CLOUDY    36  30  80 SW9       29.60F
BIG FORK       CLOUDY    34  30  86 SW5       29.61F WCI  30
LONGVILLE      CLOUDY    34  30  86 NW6       29.62R WCI  29
GRAND RAPIDS   CLOUDY    33  30  88 NW10G17   29.62F WCI  25
CRANE LAKE     CLOUDY    30  30 100 S5        29.64F WCI  25
ORR            CLOUDY    32  28  86 S5        29.58F WCI  27
COOK           CLOUDY    32  30  93 CALM      29.62R
WALKER         CLOUDY    34  30  85 SW5       29.61F WCI  30
$$
MNZ012-019>021-037-171900-
   Northeast Minnesota

CITY           SKY/WX    TMP DP  RH WIND       PRES   REMARKS
DULUTH         CLOUDY    32  31  96 SW8       29.65F FOG     WCI  25
6HR MIN TEMP:  30; 6HR MAX TEMP:  32; 6HR PCP:  0.02;

ELY            FLURRIES  32  30  93 S13G21    29.57F WCI  22
HIBBING        MIX PCPN  31  30  96 S12G18    29.57F FOG     WCI  22
EVELETH        MIX PCPN  32  28  86 S13       29.60F WCI  22
DULUTH HARBOR  CLOUDY    34  32  93 CALM      29.70F FOG
TWO HARBORS    CLOUDY    36  30  80 SW5       29.66F HAZE
SILVER BAY     LGT SNOW  34  34 100 CALM      29.66F
GRAND MARAIS     N/A     35  34  96 SW14      29.69F WCI  26
G MARAIS ARPRT LGT SNOW  28  27  93 S6        29.64F WCI  22
$$
MNZ029>031-032-039>041-046>048-054>057-064-171900-
   West Central Minnesota

CITY           SKY/WX    TMP DP  RH WIND       PRES   REMARKS
FERGUS FALLS   CLOUDY    36  32  87 W3        29.67S
WHEATON        CLOUDY    36  32  87 NW7       29.68R
MORRIS         LGT RAIN  37  34  87 SE6       29.61F
ALEXANDRIA     MIX PCPN  37  33  85 SE12      29.61F FOG
ELBOW LAKE     FAIR      34  32  93 CALM      29.64F
WADENA         CLOUDY    34  32  93 NW8       29.63R WCI  27
GLENWOOD       CLOUDY    37  32  81 SE3       29.63S
APPLETON         N/A     41  32  70 NW3       29.63F
BENSON         CLOUDY    41  32  70 NE3       29.64F
ORTONVILLE     DRIZZLE   36  30  80 MISG      29.64S
MADISON        MOSUNNY   43  34  70 NW5       29.63F
WILLMAR        FAIR      43  36  75 CALM      29.64F
$$
MNZ033>034-036-042>043-049>051-058-059-171900-
   Central Minnesota

CITY           SKY/WX    TMP DP  RH WIND       PRES   REMARKS
ST CLOUD       CLOUDY    39  33  79 CALM      29.65S
6HR MIN TEMP:  36; 6HR MAX TEMP:  39;

SAUK CENTRE    FAIR      37  31  80 CALM      29.64S
PAYNESVILLE    MOSUNNY   40  34  79 CALM      29.65R
AITKIN         CLOUDY    34  28  80 SE8       29.61F WCI  27
PINE RIVER     DRIZZLE   32  30  93 NW8G16    29.66R WCI  25
BRAINERD       CLOUDY    38  30  73 S8        29.61F
STAPLES        RAIN      36  30  80 S7        29.59F
LONG PRAIRIE   FAIR      36  32  87 CALM      29.63F
LITTLE FALLS   CLOUDY    37  28  70 SE6       29.62F
LITCHFIELD     CLOUDY    43  36  75 CALM      29.64R
BUFFALO        CLOUDY    38  33  85 SE6       29.65F FOG
MAPLE LAKE     PTSUNNY   40  36  86 SE3       29.65F
HUTCHINSON     PTSUNNY   41  37  84 SE7G20    29.60F
$$
MNZ037-044-045-052-053-171900-
   East Central Minnesota

CITY           SKY/WX    TMP DP  RH WIND       PRES   REMARKS
PRINCETON      CLOUDY    37  34  87 CALM      29.66R FOG
MORA           CLOUDY    34  32  93 CALM      29.68F FOG
CAMBRIDGE      CLOUDY    37  37 100 CALM      29.66F FOG
RUSH CITY      LGT RAIN  34  33  96 SE13      29.64F VSB 3/4 WCI  25
MOOSE LAKE     CLOUDY    34  32  93 S3        29.65F FOG
HINCKLEY       CLOUDY    34  34 100 CALM      29.67F FOG
CLOQUET        CLOUDY    34  30  86 SE8       29.64F FOG     WCI  27
MCGREGOR       CLOUDY    36  32  87 S9        29.64F
$$
MNZ071>073-080-081-089-090-097-098-171900-
   Southwest Minnesota

CITY           SKY/WX    TMP DP  RH WIND       PRES   REMARKS
MONTEVIDEO     CLOUDY    45  36  70 N3        29.61F
GRANITE FALLS  MOSUNNY   46  36  69 NW12      29.63F
CANBY          MOSUNNY   44  33  66 NW6       29.62F
MARSHALL       CLOUDY    44  35  70 N14       29.60F
REDWOOD FALLS  MOSUNNY   45  35  68 S3        29.61S
OLIVIA         MOSUNNY   43  36  75 W7        29.61S
PIPESTONE      CLOUDY    46  37  71 N13       29.57S
WINDOM           N/A     46  30  53 S6        29.59F
WORTHINGTON    CLOUDY    50  43  77 W7        29.57F
JACKSON        CLOUDY    45  37  76 CALM      29.58F
SLAYTON        MOSUNNY   48  41  77 NW9       29.59F
$$
MNZ065>067-074>077-082>085-091>093-171900-
   South Central Minnesota

CITY           SKY/WX    TMP DP  RH WIND       PRES   REMARKS
MANKATO        CLOUDY    38  36  92 S9        29.62F
NEW ULM        CLOUDY    43  36  75 CALM      29.61S
ST JAMES       CLOUDY    43  37  81 S8        29.61F
FAIRMONT       CLOUDY    41  37  86 S13       29.61F
GLENCOE        CLOUDY    41  37  85 CALM      29.62S
FARIBAULT      CLOUDY    37  36  93 S6        29.64F FOG
OWATONNA       DRIZZLE   37  36  93 S12       29.63F
WASECA         CLOUDY    36  34  93 S10       29.64F FOG
ALBERT LEA     FOG       36  36 100 S10       29.62F VSB 1
$$
MNZ078>079-086>088-094>096-171900-
   Southeast Minnesota

CITY           SKY/WX    TMP DP  RH WIND       PRES   REMARKS
ROCHESTER      LGT SNOW  35  35 100 S20       29.64F FOG     WCI  24
6HR MIN TEMP:  33; 6HR MAX TEMP:  35; 6HR PCP: TRACE;

RED WING       DRZL/FOG  37  34  87 SE5       29.66F VSB 1
STANTON        CLOUDY    38  35  89 S8        29.64F
DODGE CENTER   CLOUDY    36  34  93 S17       29.63F FOG
WINONA         CLOUDY    37  34  87 S7        29.69F
AUSTIN         DRIZZLE   36  34  93 S10       29.64F
PRESTON        CLOUDY    34  33  95 S17       29.67F FOG     WCI  24
$$
ABBREVIATIONS USED IN REMARKS
   TC - TEMPERATURES IN CELSIUS
  WCI - WIND CHILL INDEX
   HX - HEAT INDEX
  VSB - VISIBILITY
$$




USA.gov is the U.S. government's official web portal to all federal, state and local government web resources and services.